Tracking 25710 objects as of 6-Jul-2022
HD Live streaming from Space Station
objects crossing your sky now

FENGYUN 1C DEB

Track FENGYUN 1C DEB now!
10-day predictions


NORAD ID: 33650
Int'l Code: 1999-025DEK
Perigee: 843.6 km
Apogee: 1,077.1 km
Inclination: 99.0 °
Period: 104.1 minutes
Semi major axis: 7331 km
RCS: 0.0036 m2 (small)
Launch date: May 10, 1999
Source: People's Republic of China (PRC)
Launch site: Taiyaun Space Center, China (TSC)

Note: This is SATELLITE DEBRIS
aabbcc
Your satellite tracking list
Your tracking list is empty




NASA's NSSDC Master Catalog

Two Line Element Set (TLE):
1 33650U 99025DEK 22184.03823301  .00000729  00000-0  64038-3 0  9991
2 33650  98.9731  26.8083 0159262 238.5661 119.9839 13.83013353513761
Source of the keplerian elements: AFSPC